Zurück zum Katalog

SYNCOM 1

AktivKommunikationMEO
NORAD 553·PAYLOAD·🇺🇸 United States

Gestartet Feb 14, 1963 von Cape Canaveral Space Force Station

Loading…

Nächste Überflüge (nächste 24 Stunden)

TLE

AktuellSource: Space-Track

Epoche: Sep 6, 2026, 07:22 UTC

1 00553U 63004A   26249.30758203 -.00000046  00000-0  00000-0 0  9998
2 00553  26.5401 271.0329 0808557 204.1764 151.8044  1.16483635 37004

Verfolge SYNCOM 1 in Echtzeit mit AllMySat

Download on the App Store